STARLINK-31827, 59727

Orbit data source: Space-Track

STARLINK-31827, 59727 is a payload satellite owned by SpaceX/Seattle (US) in LEO that was launched on Fri, 10 May 2024 UTC via an FALCON 9 launch vehicle from the Air Force Western Test Range (AFWTR). Payload-class satellites include a variety of spacecraft equipped with specific instruments for various scientific and technological missions. These include communications satellites like Starlink; space stations such as the ISS; scientific satellites like the Hubble; Earth observation satellites from companies like Planet Labs, Umbra, and HawkEye 360; GPS; miniature CubeSats for education and research; and military/defense satellites.

Loading next visibility...
Identifier
59727, 2024-088V
Orbit
LEO
Country
Flag of USUS
Related business
Manufacturer
SpaceX/Seattle
Mission
Operational Commercial Communications
Bus & Motor
STARLINK V2M, Unknown motor
Mass
730 kg wet, ~700 kg dry
Launch date (UTC)
2024-05-10 (2 years ago)
Launch vehicle
FALCON 9
Launch site
Air Force Western Test Range (AFWTR)
Object type
Payload
Rocket body
Debris
Shape & HBR
Box + 2 Pan, 17.7 m
Radar Cross Section
33.884 m², Large (>1 m²)

Expand to show TLE details & history
Last TLE update: 11 hours ago

TLE from 11 hours ago
0 STARLINK-31827
1 59727U 24088V   25346.92713339 -.00000855  00000-0 -16742-4 0  9993
2 59727  53.1607 183.2504 0001299  99.8973 260.2174 15.30186340 90511
Epoch: 2025-12-12T22:15Z
TLE epoch observation values (Epoch: 2025-12-12T22:15:04.324Z)
Latitude
-0.00008°
Longitude
127.62059°
Altitude
476.307 km
Speed
7.629 km/s
True Right ascension
12h 13m 00s
True Declination
0° 00' 00"
Sunlit
Object was in daylight at epoch
Visualization orbit readout
Latitude
Unknown
Longitude
Unknown
Altitude
Unknown
Speed
Unknown
Apparent Right ascension
Unknown
Apparent Declination
Unknown
Sunlit
N/A
Visualization observer readout
Local Sidereal Time
07:27:32
Azimuth
Unknown
Elevation
Unknown
Doppler factor
Unknown
Orbital elements
Apogee altitude
476.402 km
Perigee altitude
474.622 km
Semi-major axis
6,853.649 km
Eccentricity
0.00013
Inclination
53.1607°
RAAN
183.2504°
Arg. of periapsis
99.8973°
True anomaly
260.20273°
Mean anomaly
260.2174°
Eccentric anomaly
260.21007°
Mean motion
3.82525 °/min
Orbital period
94.11 mins
BSTAR
-0.000016742
Loading maneuver chart data...
Computing Atmospheric mass density...
Loading historical data...
Loading historical data...
Loading historical data...
Loading historical data...
Loading historical data...
Loading historical data...
Loading historical data...

Documentation

Showing up to 5 results
|